Regional Weather Roundup
Issued by NWS

Home | Current Version | Previous Version | Text Only | Print | Product List | Glossary On
Versions: 1 2 3 4 5 6 7 8 9 10 11 12 13 14 15 16 17 18 19 20 21 22 23 24 25 26 27 28 29 30 31 32 33 34 35 36 37 38 39 40 41 42 43 44 45 46 47 48 49 50
000
ASUS44 KFWD 242315
RWRTX
NORTH TEXAS HOURLY WEATHER ROUNDUP
NATIONAL WEATHER SERVICE FORT WORTH TX
600 PM CDT TUE MAY 24 2016

NOTE: "FAIR" INDICATES FEW OR NO CLOUDS BELOW 12,000 FEET WITH NO
SIGNIFICANT WEATHER AND/OR OBSTRUCTIONS TO VISIBILITY.

TXZ118-119-250000-
DALLAS/FORT WORTH METROPLEX

CITY           SKY/WX    TMP DP  RH WIND       PRES   REMARKS
DFW AIRPORT    PTSUNNY   85  71  63 S17G24    29.89S HX  90
DALLAS LOVE    PTSUNNY   86  71  60 S21       29.89F HX  91
FTW MEACHAM    CLOUDY    86  70  58 S20       29.89S HX  90
DAL-EXECUTIVE  PTSUNNY   84  71  65 S8G22     29.90S
FTW-ALLIANCE   CLOUDY    83  72  69 S12G20    29.89S
FTW-NAS-JRB    CLOUDY    85  71  63 SE15      29.90S HX  90
FTW-SPINKS     PTSUNNY   84  72  65 S9G22     29.92R
ARLINGTON      PTSUNNY   88  72  58 S14G22    29.90S HX  94
GRAND PRAIRIE  MOSUNNY   86  72  62 SE10G18   29.91S HX  92
ADDISON        PTSUNNY   84  73  70 SE17      29.91S HX  91
MESQUITE       MOSUNNY   84  73  70 SE16G22   29.91F HX  91
LANCASTER      MOSUNNY   86  70  59 S14G22    29.91S HX  90
$$

TXZ091>094-102>105-117-120-121-131>134-250000-
NORTH CENTRAL TEXAS

CITY           SKY/WX    TMP DP  RH WIND       PRES   REMARKS
SHRMAN/DENISON CLOUDY    79  67  66 S12       29.91F
GAINESVILLE    PTSUNNY   81  72  74 SE15      29.91F
BOWIE          MOSUNNY   82  72  70 SE10G21   29.88F
DECATUR        MOSUNNY   83  70  64 SE10      29.91S
DENTON         PTSUNNY   83  72  69 S14       29.89S
MCKINNEY       CLOUDY    83  73  72 S14G23    29.90S
GREENVILLE       N/A     82  70  65 S8        29.92S
ROCKWALL       CLOUDY    83  73  72 S10G16    29.90S
TERRELL        CLOUDY    85  72  65 S13       29.91F HX  91
WAXAHACHIE     CLOUDY    83  73  72 S13       29.92S
CLEBURNE       PTSUNNY   82  75  78 S9        29.92S
GRANBURY       CLOUDY    85  72  63 SE10      29.90S HX  91
$$

TXZ083>090-098>101-113>116-127>130-139>142-154-155-250000-
WESTERN NORTH TEXAS

CITY           SKY/WX    TMP DP  RH WIND       PRES   REMARKS
WICHITA FALLS  CLOUDY    84  71  65 S16       29.84S
WF-KICKAPOO    CLOUDY    86  72  62 SE12      29.86S HX  92
VERNON         PTSUNNY   87  64  47 S18G25    29.84S
ABILENE        MOSUNNY   84  71  65 S17G25    29.88F
ABILENE-DYESS  MOSUNNY   83  66  57 SE18      29.86F
BRECKENRIDGE   CLOUDY    85  70  59 S16G23    29.88F HAZE    HX  90
GRAHAM         PTSUNNY   86  74  66 S9G17     29.86S HX  93
MINERAL WELLS  LGT RAIN  83  73  72 S8        29.88S
STEPHENVILLE   CLOUDY    82  70  67 S8        29.95R
COMANCHE       CLOUDY    80  72  76 S9        29.92S
BROWNWOOD      CLOUDY    81  72  74 S16G23    29.92S
COLEMAN        CLOUDY    83  71  64 S12G20    29.91S
$$

TXZ143>147-156>162-174-175-250000-
CENTRAL TEXAS

CITY           SKY/WX    TMP DP  RH WIND       PRES   REMARKS
WACO           CLOUDY    86  72  62 S13       29.90F HX  92
WACO-MCGREGOR  PTSUNNY   86  74  67 S17       29.91S HX  94
HILLSBORO      CLOUDY    84  72  67 S12       29.91S HX  90
CORSICANA      MOSUNNY   87  72  60 S17       29.92F HX  93
MEXIA          PTSUNNY   85  73  68 SE10G20   29.91S HX  92
HEARNE         PTSUNNY   87  75  66 SE14      29.92S HX  96
CAMERON        CLOUDY    86  75  70 S7        29.91S HX  95
TEMPLE         CLOUDY    85  74  69 S16       29.91F HX  92
KILLEEN        CLOUDY    83  73  69 SE14      29.91S
KILLEEN-SKYLRK MOSUNNY   85  74  69 S13G21    29.91F HX  92
FORT HOOD      PTSUNNY   84  73  70 S15G21    29.90S HX  91
GATESVILLE     CLOUDY    84  73  70 S9        29.94R HX  91
HAMILTON       CLOUDY    83  72  70 S13       29.93S HAZE
LAMPASAS       PTSUNNY   82  74  77 S8        29.92S
$$

TXZ095>097-106>112-122>126-135>138-148>153-164>167-250000-
EAST TEXAS

CITY           SKY/WX    TMP DP  RH WIND       PRES   REMARKS
PARIS          CLOUDY    82  66  57 S8        29.94S
SULPHUR SPRNGS PTSUNNY   86  71  60 S10       29.94F HX  91
MOUNT PLEASANT MOSUNNY   84  71  64 SE9       29.95S
GILMER         PTSUNNY   85  72  65 SE10      29.94S HX  91
MINEOLA        MOSUNNY   84  73  70 SE5       29.94S HX  91
TYLER          MOSUNNY   87  71  58 S13       29.92F HX  93
LONGVIEW       PTSUNNY   85  73  67 SE14      29.93S HX  91
MARSHALL       MOSUNNY   85  73  66 SE8       29.97S HX  91
ATHENS         MOSUNNY   86  72  62 S10       29.91S HX  92
PALESTINE      MOSUNNY   86  74  67 S6        29.94F HX  93
JACKSONVILLE   PTSUNNY   85  73  66 SE8G17    29.96F HX  92
HENDERSON      CLOUDY    85  72  63 S10       29.95S HX  91
CENTER         FAIR      87  74  64 S7        29.95F HX  95
NACOGDOCHES    MOSUNNY   84  75  74 SE13      29.94S HX  92
LUFKIN         MOSUNNY   85  73  67 S12       29.95F HX  91
$$

SUPPLEMENTAL OBSERVATIONS (CENTRAL)

CITY           SKY/WX    TMP DP  RH WIND       PRES   REMARKS
LAKE TEXOMA      N/A     82  72  69 S10         N/A
CADDO GRASSLND   N/A     82  70  65 S7G15       N/A
PAT MAYSE LAKE   N/A     81  73  78 SE8         N/A
GREENVILLE       N/A     82  72  69 S6G15       N/A
CEDAR HILL       N/A     86  72  62 S9G17       N/A  HX  92
ATHENS           N/A     86  72  62 S10         N/A  HX  92
LAKE LIMESTONE   N/A     88  73  62 S9G17       N/A  HX  96
MCGREGOR         N/A     84  73  70 S10         N/A  HX  91
$$

SUPPLEMENTAL OBSERVATIONS (WEST)

CITY           SKY/WX    TMP DP  RH WIND       PRES   REMARKS
MILLERS CREEK    N/A     82  70  65 S17G24      N/A
POSSUM KINGDOM   N/A     84  72  65 S12         N/A
LBJ GRASSLAND    N/A     84  73  70 SE9         N/A  HX  91
COMANCHE         N/A     81  72  74 S8G18       N/A
HAMBY            N/A     84  70  61 S15         N/A
IVIE RESERVOIR   N/A     84  72  65 SE13        N/A
COLORADO BEND    N/A     81  72  74 SW8         N/A
$$

SUPPLEMENTAL OBSERVATIONS (EAST)

CITY           SKY/WX    TMP DP  RH WIND       PRES   REMARKS
CLARKSVILLE      N/A     82  72  69 S6          N/A
LINDEN           N/A     88  72  58 S5          N/A  HX  94
CADDO LAKE       N/A     88  72  58 SE5         N/A  HX  94
GILMER           N/A     84  70  61 SE10        N/A
HENDERSON        N/A     86  72  62 S7G15       N/A  HX  92
N SABINE NF      N/A     84  73  70 MISG        N/A  HX  91
S SABINE NF      N/A     84  72  65 SE2         N/A
$$

SUPPLEMENTAL OBSERVATIONS ARE A COLLECTION OF AUTOMATED INSTRUMENTS
THAT ARE MAINTAINED BY A VARIETY OF FEDERAL AND STATE AGENCIES.
CERTAIN ELEMENTS...SUCH AS HUMIDITY VALUES AND SUSTAINED WIND
SPEEDS...MAY BE APPROXIMATED.




USA.gov is the U.S. government's official web portal to all federal, state and local government web resources and services.